Погода в Миличе

Польша     51°31′37″N   17°16′43″E
темп.,
°C
ветер,
м/с
пор.,
м/с
влажн.,
%
обл.,
%
осадки,
мм/ч
давл.,
гПа
погр.,
м
19 сентября, вс
вс1923:00+11ссз2689100 0.0 1016456
02:00+10ссз387899 0.1 1016406
05:00+10с377898 0.0 1016533
08:00+10ссз257654 0.0 1017349
11:00+13с3460100 0.0 10161280
14:00+13с3461100 0.1 1016983
17:00+13с3460100 0.0 1016922
20:00+12ссв2561100 0.0 1016231
20 сентября, пн
пн2023:00+11ссв2569100 0.0 1017305
02:00+10с2578100 0.0 1018360
05:00+10с2581100 0.0 1018377
08:00+10ссв3774100 0.1 1019407
11:00+11ссв355998 0.0 1020659
14:00+13ссв3553100 0.0 10201299
17:00+14ссв344794 0.0 10201478
20:00+11св376268 0.0 1022345
21 сентября, вт
вт2123:00+10всв1264100 0.0 102382
02:00+11зсз1161100 0.0 102341
05:00+10зсз2362100 0.0 1024113
08:00+10ссз256799 0.0 1025293
11:00+13ссз34495 0.0 10251148
14:00+16сз454155 0.0 10252107
17:00+14зсз4648100 0.0 10251213
20:00+13зсз4852100 0.0 1025548
22 сентября, ср
ср2223:00+11ссз2557100 0.0 1026173
02:00+10ссв1277100 0.3 1026177
05:00+9ссв1286100 0.3 1026234
08:00+9сз2482100 0.4 1025313
11:00+12ссз3560100 0.1 10251147
14:00+13зсз4561100 0.3 10241231
17:00+13зсз3564100 0.1 10231001
20:00+10зсз268490 0.3 1023326
23 сентября, чт
чт2323:00+9зюз239290 0.0 102186
02:00+10зюз268793 0.4 1020261
05:00+9з379097 0.1 1019324
08:00+10з3787100 0.1 1018381
11:00+13з4777100 0.0 1017719
14:00+18з585059 0.0 10151497
17:00+17з5953100 0.0 10121409
20:00+15зюз51158100 0.0 1012600